Simultaneous Nadir Overpasses (SNOs) Predictions

Prediction of SNOs between NPP and TERRA Satellite Orbit:

Table of predicted SNOs for the next 14.0 days since TLE Epoch: 2/13/2021
Index Date (NPP) Time (NPP) Lat,Lon (NPP) SZA (NPP ) Date (TERRA) Time (TERRA) Lat,Lon (TERRA) SZA (TERRA ) Distance(km) Time Diff (sec)
1 02/14/2021 18:21:57 -68.47, 82.89 98.81 02/14/2021 18:22:57 -68.45, 82.89 98.84 2.42 60
2 02/14/2021 19:12:41 68.35,-109.65 81.06 02/14/2021 19:12:24 68.34,-109.60 81.04 2.51 17
3 02/14/2021 20:03:13 -67.73, 58.46 99.61 02/14/2021 20:02:02 -67.78, 57.38 99.51 45.68 71
4 02/17/2021 10:38:51 -68.42,-161.27 99.79 02/17/2021 10:39:24 -68.44,-161.24 99.78 2.98 33
5 02/17/2021 11:29:35 68.30, 6.19 80.07 02/17/2021 11:28:52 68.27, 6.20 80.05 3.42 43
6 02/20/2021 02:05:08 68.73, 146.78 79.59 02/20/2021 02:06:19 68.64, 147.26 79.48 21.66 71
7 02/20/2021 02:55:45 -68.37, -45.43 100.80 02/20/2021 02:55:52 -68.37, -45.44 100.80 0.75 7
8 02/20/2021 03:46:29 68.25, 122.03 79.07 02/20/2021 03:45:19 68.25, 122.06 79.08 1.52 70
9 02/22/2021 18:21:58 68.47, -97.11 78.34 02/22/2021 18:22:49 68.45, -97.09 78.32 1.47 51
10 02/22/2021 19:12:39 -68.32, 70.40 101.83 02/22/2021 19:12:20 -68.30, 70.36 101.84 2.83 19
11 02/22/2021 20:03:08 67.39,-121.14 77.21 02/22/2021 20:02:00 67.45,-122.98 77.33 78.78 68
12 02/25/2021 09:48:26 -69.55,-150.13 101.51 02/25/2021 09:49:32 -69.44,-147.60 101.71 99.08 66
13 02/25/2021 10:38:51 68.42, 18.73 77.30 02/25/2021 10:39:15 68.43, 18.76 77.30 1.64 24
14 02/25/2021 11:29:32 -68.27,-173.76 102.87 02/25/2021 11:28:46 -68.28,-173.79 102.86 1.11 46



Historial Predications of SNOs between NPP and TERRA
